Location: Emory University Observatory
(33.7903°N, 84.3267°W)
Time: 19:18:34
(UTC-05:00)

Vanguard 2 - All Passes

Search period start: 13 December 2017 00:00
Search period end: 23 December 2017 00:00
Orbit: 553 x 2939 km, 32.9° (Epoch: 13 December)

Date Brightness Start Highest point End Pass type
(mag) Time Alt. Az. Time Alt. Az. Time Alt. Az.
13 Dec - 13:53:08 10° SSW 14:01:46 28° SSE 14:07:35 10° E daylight
13 Dec - 16:03:10 10° WSW 16:10:57 59° SSE 16:15:51 10° E daylight
13 Dec - 18:13:58 10° W 18:19:24 81° S 18:23:26 10° E visible
13 Dec - 20:23:31 10° W 20:27:20 38° SSW 20:31:09 10° SE visible
14 Dec - 12:03:19 10° S 12:09:52 16° SSE 12:15:09 10° ESE daylight
14 Dec - 14:10:25 10° SW 14:20:00 38° SSE 14:26:04 10° E daylight
14 Dec - 16:21:21 10° WSW 16:29:05 71° S 16:33:56 10° E daylight
14 Dec - 18:32:14 10° W 18:37:29 75° S 18:41:30 10° ESE visible
14 Dec - 20:41:53 10° W 20:45:19 26° SSW 20:48:46 10° SE visible
15 Dec - 12:18:59 10° SSW 12:28:12 22° SSE 12:34:54 10° ESE daylight
15 Dec - 14:28:06 10° SW 14:38:13 48° SSE 14:44:21 10° E daylight
15 Dec - 16:39:39 10° W 16:47:13 79° S 16:51:59 10° E daylight
15 Dec - 18:50:30 10° W 18:55:33 63° SSW 18:59:30 10° ESE visible
15 Dec - 21:00:35 10° WSW 21:03:15 17° SSW 21:05:57 10° SSE visible
16 Dec - 10:34:14 10° SSE 10:35:37 10° SSE 10:36:57 10° SE daylight
16 Dec - 12:35:35 10° SSW 12:46:30 30° SSE 12:53:52 10° E daylight
16 Dec - 14:46:04 10° WSW 14:56:23 59° SSE 15:02:30 10° E daylight
16 Dec - 16:58:00 10° W 17:05:21 83° S 17:10:03 10° E daylight
16 Dec - 19:08:46 10° W 19:13:35 48° SSW 19:17:24 10° SE visible
17 Dec - 10:45:59 10° S 10:53:59 16° SSE 11:00:34 10° ESE daylight
17 Dec - 12:52:45 10° SW 13:04:45 39° SSE 13:12:25 10° E daylight
17 Dec - 15:04:15 10° WSW 15:14:33 70° SSE 15:20:36 10° E daylight
17 Dec - 17:16:22 10° W 17:23:29 81° S 17:28:05 10° E daylight
17 Dec - 19:27:07 10° W 19:31:31 34° SSW 19:35:07 10° SE visible
18 Dec - 11:01:24 10° SSW 11:12:18 23° SSE 11:20:32 10° ESE daylight
18 Dec - 13:10:19 10° SW 13:22:59 49° SSE 13:30:45 10° E daylight
18 Dec - 15:22:35 10° WSW 15:32:44 79° S 15:38:40 10° E daylight
18 Dec - 17:34:43 10° W 17:41:36 74° S 17:46:06 10° ESE daylight
18 Dec - 19:45:40 10° W 19:49:22 23° SSW 19:52:34 10° SSE visible
19 Dec - 11:17:48 10° SSW 11:30:34 31° SSE 11:39:39 10° E daylight
19 Dec - 13:28:12 10° WSW 13:41:12 59° SSE 13:48:57 10° E daylight
19 Dec - 15:41:00 10° W 15:50:55 84° S 15:56:43 10° E daylight
19 Dec - 17:53:05 10° W 17:59:39 61° SSW 18:04:03 10° ESE visible
19 Dec - 20:04:42 10° WSW 20:07:09 14° SW 20:09:23 10° S visible
20 Dec - 09:29:06 10° S 09:37:35 16° SE 09:44:57 10° ESE daylight
20 Dec - 11:34:48 10° SW 11:48:49 40° SSE 11:58:20 10° E daylight
20 Dec - 13:46:20 10° WSW 13:59:25 69° SSE 14:07:04 10° E daylight
20 Dec - 15:59:27 10° W 16:09:05 84° S 16:14:46 10° E daylight
20 Dec - 18:11:27 10° W 18:17:37 46° SSW 18:21:53 10° SE visible
21 Dec - 09:44:06 10° S 09:55:49 23° SE 10:05:23 10° E daylight
21 Dec - 11:52:12 10° SW 12:07:04 49° SSE 12:16:44 10° E daylight
21 Dec - 14:04:39 10° WSW 14:17:38 78° S 14:25:10 10° E daylight
21 Dec - 16:17:55 10° W 16:27:16 81° S 16:32:48 10° ESE daylight
21 Dec - 18:29:55 10° W 18:35:28 33° SSW 18:39:29 10° SE visible
22 Dec - 10:00:14 10° SSW 10:14:01 30° SSE 10:24:45 10° E daylight
22 Dec - 12:09:56 10° SW 12:25:18 59° SSE 12:35:01 10° E daylight
22 Dec - 14:23:05 10° W 14:35:52 83° S 14:43:15 10° E daylight
22 Dec - 16:36:20 10° W 16:45:23 72° SSW 16:50:47 10° ESE daylight
22 Dec - 18:48:36 10° W 18:53:13 23° SW 18:56:47 10° SSE visible
